Wind_Speed
29 29 29 29 30 30 30 31 30 31 32 32 32 32 32 33 34 35 36 36 36 37 38 38 39 39 40 40 40 41 41 42 42 43 43 44 44 44 45 45 46 45 44 45
30 31 31 31 31 31 31 32 32 32 33 34 34 33 33 33 34 35 36 36 36 37 38 38 38 39 40 41 41 42 43 43 44 44 45 45 45 45 46 46 46 47 47 46
32 31 32 32 32 32 32 33 33 34 34 35 36 35 34 34 34 35 36 37 37 38 38 39 39 39 40 41 42 43 44 44 45 45 46 46 47 47 48 47 47 48 47 48
33 32 32 32 32 33 34 34 35 35 36 36 36 37 35 34 34 35 36 37 38 38 39 39 40 40 40 41 42 43 44 45 46 46 47 47 47 48 48 48 48 48 48 48
33 33 33 33 33 34 35 36 36 37 37 38 37 38 36 35 35 36 36 37 38 39 40 40 40 41 42 42 43 43 44 45 46 47 48 48 49 48 48 49 49 49 49 50
34 34 35 35 35 35 36 37 38 38 39 39 37 38 38 37 37 37 38 38 39 40 40 41 41 41 42 43 43 44 45 46 46 47 48 49 49 49 48 49 50 50 50 50
35 34 35 35 36 36 36 37 38 39 39 40 38 39 38 38 38 38 38 38 39 40 41 41 42 42 42 42 43 44 45 46 46 47 48 48 49 50 50 50 50 51 51 51
36 35 35 36 36 37 36 36 37 39 40 39 38 39 38 38 38 38 38 38 39 40 41 41 42 42 43 42 43 43 44 45 46 47 47 48 49 50 51 51 50 51 52 53
36 36 36 35 35 35 36 36 36 38 40 40 40 39 38 37 37 38 39 39 39 40 41 41 42 42 43 43 43 44 44 45 46 46 47 47 49 50 50 51 51 52 52 53
35 36 35 35 35 35 35 35 36 37 39 40 40 38 37 36 37 37 38 39 40 41 41 42 42 42 43 43 43 43 44 45 45 46 47 48 48 49 50 51 51 52 52 53
36 36 36 35 35 35 35 35 35 36 37 39 40 37 36 36 36 36 37 38 39 40 41 41 41 42 42 43 43 44 44 45 45 46 47 48 49 49 49 50 50 51 51 52
35 36 36 35 35 35 35 35 35 36 37 38 40 37 36 37 37 37 37 38 39 39 40 41 42 41 41 42 43 44 45 45 45 45 46 47 48 48 48 49 50 50 50 51
35 36 37 36 36 35 35 34 35 37 38 38 39 38 36 37 38 38 38 38 38 38 40 41 41 41 41 41 42 43 44 44 43 44 45 45 46 47 48 49 49 50 50 51
36 37 37 37 36 36 35 34 35 36 37 38 38 38 36 37 38 39 39 40 39 39 39 40 40 41 42 41 40 41 42 43 44 44 45 45 46 47 47 49 50 50 49 50
37 37 36 36 36 36 35 34 34 36 36 38 37 37 36 38 38 39 39 40 41 40 39 39 40 40 41 41 40 40 41 42 42 44 45 45 46 46 47 48 49 50 50 50
36 35 35 35 34 36 36 34 34 35 36 36 36 36 37 38 39 39 39 40 40 40 39 38 39 39 38 38 39 39 40 40 41 41 42 42 43 44 45 45 47 49 50 50
35 35 35 35 34 35 34 32 32 33 34 35 36 37 38 38 39 40 40 39 39 39 38 37 37 38 38 37 38 38 39 40 41 41 40 41 41 42 42 43 44 46 47 48
35 35 35 35 34 34 32 31 31 32 33 34 35 36 37 38 39 39 40 40 39 39 38 38 38 38 38 38 39 39 38 39 39 39 39 40 40 40 41 41 41 42 43 44
34 34 34 34 34 33 31 31 31 32 32 34 35 35 37 37 38 38 39 38 38 38 38 38 37 36 37 38 38 38 38 37 37 37 37 38 38 39 39 39 39 40 41 42
32 33 33 33 33 33 32 32 33 34 34 35 36 36 37 36 36 36 37 37 38 38 37 36 36 36 36 36 37 37 36 36 36 36 36 36 36 36 36 36 37 38 39 40
31 31 32 32 33 33 33 33 34 35 35 36 36 36 37 37 37 36 36 37 36 36 36 35 35 34 35 35 35 35 35 35 34 34 34 34 34 34 34 34 35 37 38 39
30 31 31 31 33 33 33 33 34 35 36 37 37 37 37 37 37 37 36 36 36 36 35 34 34 34 34 34 34 34 34 34 34 34 34 33 33 33 33 34 35 35 36 37
29 30 31 32 32 33 33 34 35 35 36 36 37 37 37 37 37 37 36 36 36 36 35 35 34 34 34 33 33 33 33 33 33 33 33 34 34 34 35 35 35 36 36 37
29 30 31 32 32 32 33 33 34 35 36 36 36 36 36 36 36 37 37 36 36 36 35 35 34 33 33 33 32 32 32 32 33 33 33 33 34 34 34 35 34 34 35 36
30 30 30 31 31 32 32 33 34 35 36 36 36 36 36 36 36 36 35 35 34 34 33 33 33 33 33 32 31 31 31 31 31 32 32 32 32 33 33 32 33 33 33 34
29 29 30 31 31 32 33 33 34 35 35 35 35 35 35 36 36 35 34 33 32 32 31 31 31 32 32 32 32 31 31 30 30 30 30 30 31 31 31 31 31 31 31 32
Wind_Direction
290 288 287 285 284 284 283 281 280 280 278 277 276 276 275 274 273 272 272 273 273 273 273 273 272 270 269 267 267 265 264 262 260 257 255 254 254 255 256 256 255 255 254 254
289 288 287 286 285 284 283 282 281 280 279 279 278 276 275 274 274 274 273 273 273 273 273 273 273 271 269 268 266 266 264 262 260 257 255 254 254 254 255 256 256 256 256 255
289 289 288 286 285 284 283 283 282 281 279 279 279 276 275 275 275 275 275 274 274 274 274 274 274 272 270 268 267 266 265 262 260 258 255 254 255 255 255 256 256 257 257 256
289 289 287 286 286 285 284 283 282 280 278 279 280 278 276 276 277 277 277 276 276 275 275 274 274 272 271 269 268 267 265 263 260 258 257 256 256 255 256 256 257 256 256 255
290 289 287 285 285 284 284 283 282 281 279 279 280 280 279 278 279 278 278 277 276 275 275 274 274 272 271 270 269 267 265 263 261 259 258 257 258 257 257 257 256 256 256 255
290 289 287 286 285 285 284 284 283 282 281 280 282 282 281 280 280 279 279 278 276 276 276 275 274 273 271 270 269 267 266 264 262 260 260 259 259 258 258 257 256 256 256 256
290 289 288 287 287 286 285 285 284 283 282 282 283 282 282 282 282 281 280 279 277 277 277 276 275 274 273 272 270 268 266 264 262 261 261 260 259 259 258 258 256 255 255 256
292 291 290 289 288 288 287 286 285 284 284 283 283 283 284 284 283 281 281 280 279 278 278 277 277 276 274 273 271 269 266 264 262 261 261 261 260 260 259 259 258 257 256 255
294 292 291 290 290 290 289 287 286 284 284 283 284 285 284 285 284 283 281 281 281 280 279 279 278 278 275 273 271 269 266 263 262 261 261 261 260 261 260 260 259 257 256 255
294 293 293 292 291 290 290 289 288 285 285 286 286 287 288 287 287 286 285 283 282 281 280 280 279 278 276 273 271 269 266 264 263 262 262 261 261 262 262 261 260 259 258 256
295 295 295 294 293 292 290 289 287 285 285 286 287 289 289 288 288 288 287 286 284 283 282 281 280 278 277 275 272 270 268 265 263 263 263 262 262 263 263 262 261 260 259 257
296 295 295 296 295 293 291 289 286 285 285 285 286 288 289 288 287 287 287 287 285 283 282 282 281 280 279 277 275 272 270 267 265 264 263 263 263 263 262 262 261 261 259 257
296 296 297 296 296 294 292 289 285 284 283 284 285 288 289 287 286 287 286 287 286 285 283 283 282 281 280 279 277 273 271 269 267 266 266 265 264 264 262 262 262 261 259 258
296 295 295 296 297 295 292 291 287 285 284 285 286 287 287 286 285 286 287 286 286 286 285 284 283 282 280 278 278 275 274 272 269 267 267 267 266 264 263 261 261 260 258 257
297 295 294 294 294 294 293 292 290 287 286 286 288 288 288 287 287 287 287 287 287 286 286 286 285 283 280 278 277 278 276 273 270 268 268 267 266 265 264 263 262 260 258 257
298 296 295 294 294 293 292 293 292 290 288 288 289 289 288 288 287 287 287 287 287 288 287 286 285 284 282 279 277 278 277 275 272 269 268 268 268 267 265 264 263 261 259 257
299 298 297 296 296 294 294 295 294 292 291 291 291 290 288 287 288 288 288 288 288 288 288 287 286 284 282 281 280 279 278 277 275 272 269 269 269 269 267 265 264 263 261 258
299 299 298 297 297 295 297 295 296 295 293 294 294 292 291 290 289 289 289 289 289 288 288 287 286 285 283 282 281 281 280 279 276 274 271 270 270 269 267 266 265 264 262 259
299 300 299 298 297 297 297 297 297 297 296 295 294 293 293 293 291 289 288 288 288 289 289 288 287 286 285 283 283 282 281 279 277 274 273 272 270 268 266 264 264 264 262 260
299 300 300 299 298 298 299 298 298 297 298 297 296 295 295 295 293 292 290 288 288 288 289 289 288 288 287 286 285 284 283 281 277 275 273 273 271 269 266 263 263 262 261 260
298 299 300 300 299 298 299 298 298 298 299 298 297 296 296 296 295 294 292 290 288 288 288 289 289 289 289 289 288 286 285 282 279 276 274 273 273 271 268 265 264 263 261 259
300 301 301 301 301 301 301 299 299 299 299 299 298 297 296 297 296 295 294 292 289 288 287 288 288 289 290 290 289 288 286 284 282 278 275 274 273 272 270 268 265 264 262 260
301 302 302 302 302 303 302 301 301 301 301 301 300 298 297 297 297 296 294 293 291 290 289 288 289 289 289 290 289 288 287 286 284 281 278 275 275 274 272 270 267 265 262 260
300 302 302 302 302 304 304 304 304 304 304 303 302 300 300 300 299 297 296 294 292 291 290 290 290 290 290 289 289 288 287 287 285 283 280 278 277 276 275 273 269 266 263 260
299 301 302 301 302 302 303 304 306 307 306 305 303 303 302 302 302 300 298 295 294 292 291 291 290 290 290 289 289 289 288 287 286 284 282 280 279 278 277 275 272 268 265 262
299 300 301 302 302 303 304 305 306 306 306 305 304 304 303 302 302 300 298 296 295 293 293 292 292 291 291 290 290 289 287 287 286 285 284 283 281 280 278 277 274 270 267 263
Height
5726 5725 5722 5720 5718 5716 5713 5712 5710 5709 5707 5705 5704 5704 5703 5701 5699 5698 5697 5696 5695 5693 5692 5691 5690 5688 5687 5687 5686 5686 5686 5686 5686 5687 5689 5690 5692 5694 5695 5697 5698 5699 5702 5703
5719 5717 5714 5711 5709 5706 5704 5702 5701 5700 5697 5695 5694 5694 5694 5692 5690 5688 5687 5685 5684 5683 5682 5680 5679 5677 5676 5676 5675 5675 5675 5675 5675 5676 5677 5679 5680 5682 5683 5684 5686 5687 5690 5691
5710 5709 5705 5702 5699 5697 5695 5693 5692 5690 5688 5685 5684 5684 5684 5682 5679 5678 5676 5675 5673 5672 5671 5669 5668 5666 5665 5664 5663 5663 5663 5663 5663 5664 5665 5666 5668 5669 5671 5672 5674 5675 5677 5679
5701 5698 5695 5693 5690 5687 5685 5684 5681 5679 5677 5675 5674 5672 5674 5672 5669 5667 5665 5664 5662 5661 5659 5658 5656 5655 5654 5653 5651 5651 5651 5651 5651 5651 5652 5653 5655 5656 5658 5659 5661 5662 5664 5666
5691 5689 5686 5684 5681 5678 5675 5673 5671 5668 5666 5665 5663 5660 5663 5661 5659 5657 5655 5652 5651 5649 5648 5646 5644 5643 5642 5641 5639 5639 5638 5638 5638 5639 5639 5640 5641 5643 5644 5645 5647 5649 5651 5652
5682 5679 5676 5674 5671 5668 5665 5663 5660 5657 5655 5654 5654 5650 5649 5650 5648 5645 5643 5641 5639 5637 5636 5634 5632 5631 5629 5628 5627 5626 5625 5625 5625 5626 5626 5627 5628 5629 5630 5632 5633 5635 5637 5638
5672 5670 5666 5664 5661 5658 5655 5653 5649 5646 5644 5643 5642 5639 5639 5638 5636 5633 5632 5630 5627 5626 5624 5622 5620 5618 5617 5615 5614 5613 5612 5612 5612 5612 5612 5613 5614 5615 5616 5618 5619 5621 5623 5624
5661 5660 5657 5653 5650 5648 5645 5642 5640 5636 5633 5632 5630 5628 5629 5627 5624 5622 5620 5618 5616 5614 5611 5609 5607 5605 5604 5602 5601 5600 5599 5598 5598 5598 5599 5600 5600 5601 5602 5604 5605 5606 5608 5610
5651 5649 5646 5643 5640 5637 5634 5632 5629 5625 5622 5620 5619 5618 5617 5615 5613 5610 5608 5606 5604 5601 5599 5597 5595 5593 5590 5589 5588 5587 5585 5585 5584 5585 5585 5586 5586 5587 5588 5589 5590 5591 5593 5595
5640 5638 5636 5633 5630 5627 5624 5621 5618 5615 5611 5608 5607 5607 5606 5603 5601 5599 5596 5594 5591 5589 5587 5584 5582 5580 5578 5576 5574 5573 5572 5571 5571 5571 5571 5571 5572 5572 5573 5574 5575 5576 5578 5580
5631 5628 5626 5623 5620 5617 5615 5612 5608 5604 5601 5598 5596 5599 5595 5592 5589 5587 5584 5581 5579 5576 5574 5571 5569 5567 5564 5562 5560 5559 5558 5557 5557 5557 5557 5557 5558 5558 5558 5559 5560 5562 5563 5565
5621 5618 5615 5613 5610 5606 5603 5601 5598 5595 5592 5588 5585 5589 5585 5581 5578 5575 5572 5569 5567 5564 5561 5558 5556 5554 5551 5549 5547 5545 5544 5543 5543 5543 5543 5543 5543 5543 5544 5545 5545 5546 5548 5549
5612 5608 5605 5603 5602 5598 5593 5591 5587 5584 5581 5578 5575 5578 5574 5570 5566 5564 5561 5558 5555 5553 5549 5546 5543 5541 5538 5536 5534 5531 5530 5530 5529 5529 5529 5529 5529 5529 5530 5530 5530 5531 5533 5534
5602 5599 5596 5593 5590 5586 5583 5580 5577 5573 5570 5567 5566 5565 5564 5559 5556 5553 5550 5547 5544 5541 5538 5534 5531 5528 5526 5524 5521 5519 5517 5516 5516 5515 5515 5515 5515 5515 5515 5515 5516 5516 5517 5519
5592 5589 5586 5583 5579 5575 5572 5570 5567 5563 5560 5557 5556 5554 5552 5547 5544 5542 5538 5535 5532 5529 5526 5522 5519 5516 5513 5511 5509 5506 5505 5503 5502 5502 5501 5501 5500 5500 5500 5500 5501 5501 5502 5504
5582 5579 5576 5573 5570 5565 5562 5560 5556 5553 5550 5547 5545 5543 5540 5536 5533 5530 5527 5523 5520 5517 5513 5510 5506 5503 5500 5498 5496 5494 5492 5491 5489 5488 5487 5487 5486 5486 5486 5485 5485 5486 5487 5489
5574 5569 5566 5563 5560 5555 5553 5551 5547 5544 5540 5537 5534 5532 5528 5524 5521 5518 5514 5511 5508 5505 5501 5498 5495 5492 5489 5486 5484 5482 5480 5478 5476 5474 5473 5473 5473 5472 5472 5471 5471 5471 5472 5473
5565 5560 5555 5552 5550 5546 5547 5541 5538 5534 5531 5527 5523 5520 5517 5513 5510 5506 5502 5499 5496 5493 5490 5487 5484 5481 5478 5475 5472 5470 5468 5466 5463 5462 5460 5460 5459 5459 5459 5458 5457 5458 5458 5459
5556 5551 5547 5543 5539 5536 5536 5532 5528 5524 5522 5518 5514 5510 5506 5502 5499 5496 5491 5487 5484 5481 5478 5476 5472 5469 5466 5464 5461 5458 5456 5453 5451 5450 5448 5448 5447 5447 5446 5446 5445 5446 5446 5447
5547 5543 5539 5534 5530 5528 5528 5523 5518 5515 5512 5508 5503 5499 5495 5491 5488 5486 5480 5477 5473 5470 5467 5464 5461 5458 5455 5452 5449 5447 5444 5442 5440 5438 5437 5436 5435 5435 5434 5434 5434 5434 5434 5435
5539 5535 5531 5526 5521 5519 5519 5514 5509 5507 5504 5498 5493 5489 5485 5481 5477 5474 5470 5466 5463 5460 5457 5454 5451 5448 5444 5441 5438 5436 5433 5431 5429 5427 5426 5425 5424 5423 5422 5422 5422 5422 5423 5423
5530 5526 5523 5518 5514 5514 5509 5504 5501 5497 5492 5488 5483 5479 5475 5471 5467 5463 5459 5456 5452 5449 5446 5443 5440 5437 5434 5431 5428 5425 5423 5420 5418 5416 5415 5414 5413 5411 5411 5410 5410 5410 5410 5411
5522 5519 5515 5512 5509 5505 5500 5495 5491 5487 5483 5479 5474 5470 5466 5462 5458 5454 5450 5446 5442 5439 5436 5433 5430 5427 5424 5421 5418 5416 5413 5411 5409 5407 5405 5403 5402 5401 5400 5399 5398 5398 5399 5400
5514 5510 5507 5503 5500 5496 5491 5487 5482 5478 5474 5469 5465 5461 5456 5452 5448 5444 5440 5436 5432 5429 5426 5423 5420 5417 5414 5411 5408 5406 5404 5401 5399 5397 5395 5393 5392 5390 5388 5387 5387 5387 5387 5387
5506 5502 5498 5494 5491 5487 5483 5479 5474 5470 5465 5460 5456 5451 5446 5442 5438 5434 5429 5426 5422 5419 5416 5413 5410 5407 5405 5401 5399 5396 5394 5391 5389 5387 5385 5383 5381 5380 5378 5376 5375 5375 5375 5375
5498 5494 5490 5486 5483 5479 5475 5470 5466 5461 5456 5452 5447 5442 5437 5433 5428 5424 5420 5416 5412 5409 5406 5403 5400 5398 5395 5392 5389 5387 5384 5382 5379 5377 5375 5373 5371 5370 5368 5366 5365 5364 5364 5365